[[{"header":{"parameterUnit":"m.s-1","parameterCategory":1,"la1":30.2991,"la2":30.254,"lo1":-89.0895,"lo2":-89.0444,"dy":0.0017,"dx":0.0017,"nx":28,"ny":28,"refTime":"2024-08-03T21:00:00:Z","depth":0,"parameterNumber":2,"parameterNumberName":"U-component_of_WINDS"},"data":[0,0,0,0,0,0,0,0,0,0,0,0,0,0,0,0,0,0,0,0,0,0,0,0,0,0,0,0,0,0,0,0,0,0,0,0,0,0,0,0,0,0,0,0,0,0,0,0,0,0,0,0,0,0,0,0,0,0,1.5244,1.5242,0,1.5088,1.5086,1.5084,1.4986,1.4985,1.4985,1.4984,1.4808,1.4804,1.48,0,0,0,0,0,0,0,0,0,0,0,0,0,1.5443,1.544,1.5244,1.5242,1.524,1.5088,1.5086,1.5084,1.4986,1.4985,1.4984,1.4984,1.481,1.4805,1.48,0,0,0,0,0,0,0,0,0,0,0,0,0,1.5328,1.5439,1.5244,1.5173,1.5165,1.5089,1.5086,1.5083,1.4986,1.4985,1.4984,1.4984,1.4811,1.4805,1.4799,1.4776,0,0,1.478,1.4777,0,0,0,0,0,0,0,0,1.5335,1.5321,1.5186,1.5178,1.5169,1.5056,1.5092,1.498,1.4986,1.5053,1.4984,1.4983,1.489,1.4878,1.4849,1.4768,1.4761,1.4779,1.4776,1.4773,1.4771,0,0,0,0,0,0,0,1.5343,1.5327,1.5182,1.5184,1.5173,1.5145,1.5127,1.507,1.4978,1.5048,1.504,1.5024,1.4885,1.4856,1.4845,1.4758,1.478,1.4774,1.477,1.4768,1.4649,1.4649,0,0,0,0,0,0,1.5364,1.5335,1.5187,1.5177,1.5252,1.5142,1.5123,1.5093,1.4978,1.496,1.5025,1.502,1.4867,1.4852,1.4838,1.4803,1.4773,1.4767,1.4764,1.4648,1.4649,1.465,0,0,0,0,0,0,1.5369,1.5352,1.5193,1.5254,1.5231,1.5139,1.5106,1.509,1.506,1.4961,1.4943,1.5012,1.4866,1.4847,1.4793,1.4796,1.4764,1.4759,1.4648,1.4648,1.4649,1.4734,0,0,0,0,0,0,1.5375,1.5354,1.5348,1.5255,1.5229,1.5155,1.5107,1.5087,1.5052,1.5044,1.4945,1.4927,1.4864,1.4803,1.4787,1.4786,1.4754,1.4647,1.4648,1.4649,1.473,1.4737,1.4744,0,0,0,0,0,1.5383,1.5374,1.5348,1.5331,1.5219,1.5156,1.514,1.5072,1.5052,1.5043,1.4979,1.493,1.4799,1.4799,1.478,1.4777,1.4646,1.4648,1.4649,1.4727,1.4736,1.4743,0,0,0,0,0,0,1.5464,1.5361,1.533,1.5293,1.5235,1.5139,1.5125,1.5083,1.5025,1.502,1.4933,1.4911,1.4866,1.4816,1.4818,1.4748,1.4717,1.4714,1.4783,1.479,1.4797,1.4808,1.4748,0,0,0,0,0,1.5479,1.5441,1.535,1.5325,1.5298,1.5218,1.5187,1.5141,1.5074,1.5047,1.498,1.4913,1.4857,1.4821,1.4763,1.4724,1.4699,1.4712,1.4719,1.4725,1.4723,1.4696,1.4701,1.4654,1.4654,1.4654,0,0,1.5506,1.5445,1.5425,1.534,1.529,1.5248,1.5197,1.5154,1.5121,1.5039,1.4986,1.4934,1.4854,1.4808,1.4783,1.4764,1.4731,1.4727,1.4732,1.4726,1.4698,1.4703,1.4707,1.4655,1.4655,1.4655,0,0,1.5534,1.5486,1.546,1.5412,1.5339,1.5285,1.528,1.5192,1.5156,1.5103,1.504,1.4997,1.4902,1.4848,1.4808,1.482,1.4771,1.4803,1.4836,1.4812,1.4816,1.4818,1.482,1.4823,1.4802,1.4802,1.4802,0,1.5576,1.5516,1.5451,1.5413,1.5377,1.5308,1.5278,1.5233,1.5142,1.5116,1.5098,1.4979,1.492,1.486,1.4863,1.4834,1.4821,1.4812,1.4822,1.4823,1.4825,1.4826,1.4827,1.4806,1.4806,1.4805,1.4805,0,1.557,1.5529,1.5516,1.5437,1.5399,1.5366,1.5292,1.5261,1.5218,1.5166,1.5111,1.5039,1.4966,1.4948,1.4903,1.4881,1.4872,1.4839,1.4804,1.4835,1.4834,1.4834,1.4812,1.4811,1.481,1.4809,0,0,1.5641,1.5531,1.5527,1.549,1.5406,1.537,1.5333,1.5267,1.5241,1.5181,1.5145,1.5069,1.5039,1.4993,1.4942,1.4921,1.4934,1.489,1.4887,1.4899,1.4902,1.4926,1.4928,1.4903,1.4903,1.4903,1.4908,0,1.5655,1.5591,1.5533,1.5487,1.5447,1.5382,1.5349,1.5291,1.5242,1.5197,1.5139,1.5087,1.5052,1.5024,1.5001,1.4938,1.4932,1.4936,1.4863,1.4862,1.4884,1.4927,1.4952,1.496,1.4907,1.4907,1.4907,0,1.5663,1.5612,1.5565,1.5486,1.5467,1.5439,1.5375,1.5334,1.5266,1.5231,1.5184,1.5132,1.5085,1.5059,1.4991,1.4995,1.4962,1.4926,1.4925,1.4912,1.4885,1.4914,1.4961,1.4962,1.4907,1.4907,1.4907,0,1.5718,1.5637,1.5599,1.557,1.5477,1.5459,1.5418,1.535,1.5315,1.5257,1.5233,1.5169,1.5133,1.5082,1.5012,1.5,1.4951,1.4919,1.4917,1.4919,1.4906,1.4908,1.4947,1.489,1.489,1.489,1.489,0,1.5738,1.5711,1.5623,1.5598,1.5565,1.5498,1.5465,1.5418,1.5359,1.5321,1.5259,1.5224,1.5136,1.5089,1.5033,1.4985,1.4969,1.4936,1.4921,1.494,1.4944,1.4915,1.4911,1.489,1.489,1.489,1.489,0,1.5792,1.5733,1.5686,1.5605,1.5583,1.5562,1.549,1.5461,1.5411,1.5364,1.5348,1.5266,1.5208,1.5135,1.5051,1.5014,1.4971,1.4949,1.4995,1.4986,1.4988,1.4988,1.5007,1.5005,1.4953,1.4954,1.4954,0,1.5808,1.5787,1.5705,1.5678,1.5642,1.5599,1.5564,1.5496,1.5462,1.5385,1.5365,1.5304,1.5251,1.516,1.5089,1.5025,1.5,1.5012,1.4989,1.5009,1.4997,1.4999,1.4995,1.5016,1.5017,1.5018,1.5018,0,1.5842,1.5815,1.577,1.5716,1.5679,1.5631,1.558,1.556,1.5481,1.5445,1.5388,1.5348,1.5266,1.5204,1.5132,1.5084,1.5036,1.5027,1.5022,1.504,1.5067,1.5051,1.5008,1.5025,1.5025,1.5024,1.5024,1.5024,1.5875,1.5853,1.5794,1.5746,1.5703,1.5657,1.5628,1.5576,1.5529,1.5462,1.5423,1.5367,1.5298,1.5198,1.5152,1.5104,1.5086,1.508,1.5078,1.5077,1.5083,1.5079,1.509,1.509,1.509,1.5089,1.5089,0,1.5904,1.5864,1.5822,1.5756,1.5718,1.5685,1.5627,1.5596,1.555,1.5493,1.5444,1.5378,1.5319,1.5246,1.5181,1.5156,1.5132,1.514,1.514,1.5129,1.5103,1.5113,1.5161,1.5161,1.5161,1.5161,1.5161,1.5161,1.5915,1.5876,1.5842,1.5781,1.5738,1.5688,1.5658,1.5615,1.5569,1.5501,1.5454,1.5409,1.5345,1.5275,1.5218,1.5197,1.5174,1.5189,1.5162,1.5137,1.5131,1.5125,1.5134,1.5185,1.5185,1.5191,1.5191,1.5192]},{"header":{"parameterUnit":"m.s-1","parameterCategory":1,"la1":30.2991,"la2":30.254,"lo1":-89.0895,"lo2":-89.0444,"dy":0.0017,"dx":0.0017,"nx":28,"ny":28,"refTime":"2024-08-03T21:00:00:Z","depth":0,"parameterNumber":3,"parameterNumberName":"V-component_of_WINDS"},"data":[0,0,0,0,0,0,0,0,0,0,0,0,0,0,0,0,0,0,0,0,0,0,0,0,0,0,0,0,0,0,0,0,0,0,0,0,0,0,0,0,0,0,0,0,0,0,0,0,0,0,0,0,0,0,0,0,0,0,-1.0815,-1.0817,0,-1.1026,-1.1028,-1.1031,-1.1101,-1.11,-1.1099,-1.1098,-1.132,-1.1326,-1.1333,0,0,0,0,0,0,0,0,0,0,0,0,0,-1.0477,-1.0483,-1.0815,-1.0817,-1.082,-1.1026,-1.1029,-1.1031,-1.1101,-1.11,-1.1099,-1.1098,-1.1318,-1.1326,-1.1334,0,0,0,0,0,0,0,0,0,0,0,0,0,-1.065,-1.0485,-1.0814,-1.0879,-1.0887,-1.1025,-1.1029,-1.1032,-1.1101,-1.11,-1.1099,-1.1097,-1.1315,-1.1325,-1.1335,-1.1425,0,0,-1.1366,-1.137,0,0,0,0,0,0,0,0,-1.064,-1.0662,-1.0867,-1.0875,-1.0884,-1.1036,-1.0991,-1.1164,-1.1102,-1.102,-1.1098,-1.1097,-1.1227,-1.1244,-1.1287,-1.1435,-1.1445,-1.1367,-1.1373,-1.1377,-1.138,0,0,0,0,0,0,0,-1.0628,-1.0653,-1.0898,-1.087,-1.0881,-1.09,-1.0923,-1.1024,-1.1129,-1.1027,-1.1033,-1.1057,-1.1231,-1.1277,-1.1293,-1.1448,-1.1366,-1.1375,-1.1382,-1.1386,-1.1683,-1.1684,0,0,0,0,0,0,-1.0604,-1.0643,-1.0892,-1.0905,-1.0756,-1.0907,-1.0933,-1.0989,-1.1128,-1.1148,-1.1058,-1.1059,-1.126,-1.1281,-1.1301,-1.1416,-1.1377,-1.1387,-1.1392,-1.1681,-1.1683,-1.1685,0,0,0,0,0,0,-1.0597,-1.0626,-1.0883,-1.0775,-1.081,-1.0914,-1.0976,-1.0993,-1.1039,-1.1151,-1.117,-1.1085,-1.126,-1.1286,-1.1393,-1.1425,-1.1391,-1.14,-1.1679,-1.1682,-1.1684,-1.1647,0,0,0,0,0,0,-1.0587,-1.0622,-1.0656,-1.0776,-1.0815,-1.097,-1.0978,-1.0999,-1.1056,-1.106,-1.1181,-1.12,-1.1261,-1.1378,-1.1403,-1.1438,-1.1408,-1.1676,-1.168,-1.1683,-1.1646,-1.1648,-1.165,0,0,0,0,0,-1.0574,-1.0638,-1.0657,-1.0687,-1.0859,-1.0972,-1.0995,-1.1062,-1.1058,-1.1094,-1.1166,-1.1196,-1.1417,-1.1388,-1.1418,-1.1456,-1.1675,-1.1679,-1.1683,-1.1645,-1.1648,-1.165,0,0,0,0,0,0,-1.0521,-1.0655,-1.0678,-1.0782,-1.0865,-1.0984,-1.1031,-1.1063,-1.115,-1.115,-1.1232,-1.1259,-1.136,-1.1419,-1.1384,-1.1551,-1.1548,-1.1558,-1.1509,-1.1512,-1.1514,-1.1498,-1.1417,0,0,0,0,0,-1.0521,-1.06,-1.0713,-1.0795,-1.0835,-1.0925,-1.0977,-1.1022,-1.1112,-1.1148,-1.1227,-1.1315,-1.1405,-1.1462,-1.155,-1.1655,-1.1683,-1.1696,-1.1698,-1.1699,-1.1707,-1.1769,-1.1776,-1.1698,-1.1698,-1.1698,0,0,-1.0523,-1.0606,-1.0651,-1.0786,-1.0855,-1.0937,-1.0955,-1.104,-1.1102,-1.1161,-1.1267,-1.1328,-1.1432,-1.1538,-1.1589,-1.1591,-1.1735,-1.1704,-1.1704,-1.1712,-1.1774,-1.1781,-1.1787,-1.1701,-1.1701,-1.17,0,0,-1.0568,-1.0638,-1.0713,-1.0783,-1.0887,-1.0947,-1.0965,-1.108,-1.1122,-1.1229,-1.1276,-1.1352,-1.1503,-1.1576,-1.1632,-1.1705,-1.1737,-1.1732,-1.1743,-1.1802,-1.1808,-1.1814,-1.1841,-1.185,-1.1739,-1.1739,-1.1739,0,-1.0558,-1.068,-1.0749,-1.0832,-1.0891,-1.0947,-1.1025,-1.109,-1.1218,-1.1258,-1.1258,-1.145,-1.1524,-1.1648,-1.1666,-1.171,-1.1735,-1.1719,-1.1801,-1.1808,-1.1814,-1.1842,-1.1851,-1.1738,-1.1738,-1.1738,-1.1738,0,-1.0663,-1.0748,-1.0796,-1.0918,-1.0982,-1.1062,-1.1145,-1.1202,-1.1241,-1.1302,-1.1411,-1.1502,-1.161,-1.1643,-1.1682,-1.1774,-1.1772,-1.1785,-1.1783,-1.1819,-1.1846,-1.1857,-1.1736,-1.1737,-1.1737,-1.1737,0,0,-1.068,-1.0838,-1.0855,-1.0911,-1.1031,-1.1099,-1.1183,-1.1287,-1.1335,-1.1423,-1.1496,-1.1624,-1.1637,-1.1701,-1.175,-1.1801,-1.1855,-1.1809,-1.1813,-1.1815,-1.1963,-1.1953,-1.1964,-1.1876,-1.1879,-1.1881,-1.1955,0,-1.0742,-1.0891,-1.0956,-1.1077,-1.1157,-1.1212,-1.1285,-1.1368,-1.1427,-1.1505,-1.1572,-1.1661,-1.1671,-1.171,-1.1764,-1.1837,-1.1886,-1.1832,-1.1948,-1.1951,-1.1921,-1.1978,-1.1967,-1.2033,-1.1966,-1.1968,-1.1969,0,-1.0833,-1.0919,-1.1047,-1.1158,-1.1194,-1.1259,-1.136,-1.1433,-1.1529,-1.1569,-1.164,-1.1686,-1.1779,-1.177,-1.19,-1.1861,-1.1913,-1.1956,-1.196,-1.1974,-1.1962,-1.1994,-1.2055,-1.2065,-1.1986,-1.1985,-1.1984,0,-1.0834,-1.0982,-1.1078,-1.1125,-1.1256,-1.13,-1.1358,-1.1452,-1.1511,-1.16,-1.1639,-1.1739,-1.1793,-1.187,-1.1943,-1.193,-1.2066,-1.2063,-1.2103,-1.2102,-1.213,-1.2128,-1.2201,-1.2161,-1.2161,-1.2161,-1.2161,0,-1.0896,-1.0972,-1.108,-1.114,-1.1228,-1.1303,-1.1389,-1.145,-1.1534,-1.1608,-1.1662,-1.173,-1.1821,-1.1903,-1.196,-1.2059,-1.2084,-1.212,-1.2134,-1.2116,-1.2111,-1.2151,-1.2148,-1.2164,-1.2163,-1.2163,-1.2162,0,-1.0912,-1.0987,-1.1096,-1.1211,-1.1242,-1.1302,-1.1402,-1.1463,-1.1525,-1.1618,-1.1644,-1.1742,-1.184,-1.192,-1.2049,-1.2088,-1.2192,-1.2208,-1.2159,-1.2167,-1.2203,-1.2199,-1.2306,-1.2324,-1.227,-1.2271,-1.2271,0,-1.0946,-1.1007,-1.1128,-1.1181,-1.1237,-1.1321,-1.1381,-1.1457,-1.1518,-1.1632,-1.168,-1.1781,-1.1866,-1.2021,-1.2105,-1.2205,-1.2224,-1.2255,-1.224,-1.2219,-1.2226,-1.2222,-1.2229,-1.2256,-1.2257,-1.2257,-1.2257,0,-1.1001,-1.1035,-1.1118,-1.1215,-1.1285,-1.1365,-1.1447,-1.1488,-1.158,-1.1646,-1.1746,-1.1812,-1.1943,-1.2044,-1.2152,-1.2214,-1.2252,-1.2261,-1.2276,-1.2257,-1.2227,-1.2245,-1.2164,-1.2258,-1.2258,-1.2258,-1.2258,-1.2258,-1.1028,-1.1085,-1.1179,-1.1271,-1.134,-1.1415,-1.1478,-1.1548,-1.1632,-1.1743,-1.1784,-1.1887,-1.1983,-1.2132,-1.2195,-1.2278,-1.2282,-1.2303,-1.2309,-1.2313,-1.2311,-1.2212,-1.2298,-1.2298,-1.2298,-1.2298,-1.2298,0,-1.1086,-1.1149,-1.1233,-1.1345,-1.1418,-1.1444,-1.1537,-1.1597,-1.1686,-1.1772,-1.1854,-1.197,-1.2069,-1.216,-1.2264,-1.2313,-1.2333,-1.2338,-1.2336,-1.235,-1.2301,-1.2278,-1.232,-1.232,-1.232,-1.232,-1.232,-1.232,-1.1125,-1.1222,-1.1267,-1.14,-1.1464,-1.1564,-1.1615,-1.1686,-1.1754,-1.1881,-1.1962,-1.202,-1.2109,-1.222,-1.2312,-1.2337,-1.2373,-1.2374,-1.2403,-1.2356,-1.2353,-1.235,-1.2329,-1.238,-1.2381,-1.2445,-1.2445,-1.2446]}]]